Time,TemperatureF,DewpointF,PressureIn,WindDirection,WindDirectionDegrees,WindSpeedMPH,WindSpeedGustMPH,Humidity,HourlyPrecipIn,Conditions,Clouds,dailyrainin,SoftwareType,DateUTC
2013-05-04 00:01:00,56.0,22.0,-100.00,NNW,342,3.0,4.0,26,-99.99,,,-99.99,,2013-05-04 07:01:00,
2013-05-04 00:11:00,56.0,22.0,-100.00,NW,322,3.0,4.0,26,-99.99,,,-99.99,,2013-05-04 07:11:00,
2013-05-04 00:21:00,56.0,22.0,-100.00,NW,325,3.0,4.0,26,-99.99,,,-99.99,,2013-05-04 07:21:00,
2013-05-04 00:31:00,56.0,22.0,-100.00,NW,325,3.0,4.0,26,-99.99,,,-99.99,,2013-05-04 07:31:00,
2013-05-04 00:41:00,56.0,21.0,-100.00,NW,316,2.0,3.0,25,-99.99,,,-99.99,,2013-05-04 07:41:00,
2013-05-04 00:52:00,56.0,21.0,-100.00,NNW,333,3.0,4.0,25,-99.99,,,-99.99,,2013-05-04 07:52:00,
2013-05-04 01:01:00,56.0,20.0,-100.00,NNW,341,3.0,4.0,24,-99.99,,,-99.99,,2013-05-04 08:01:00,
2013-05-04 01:11:00,56.0,19.0,-100.00,NW,317,3.0,4.0,23,-99.99,,,-99.99,,2013-05-04 08:11:00,
2013-05-04 01:21:00,57.0,19.0,-100.00,NNW,339,3.0,4.0,22,-99.99,,,-99.99,,2013-05-04 08:21:00,
2013-05-04 01:31:00,56.0,17.0,-100.00,NNW,345,3.0,4.0,21,-99.99,,,-99.99,,2013-05-04 08:31:00,
2013-05-04 01:41:00,56.0,17.0,-100.00,NNW,347,4.0,4.0,21,-99.99,,,-99.99,,2013-05-04 08:41:00,
2013-05-04 01:52:00,56.0,17.0,-100.00,NNW,338,3.0,4.0,21,-99.99,,,-99.99,,2013-05-04 08:52:00,
2013-05-04 02:02:00,57.0,16.0,-100.00,NNW,331,3.0,4.0,20,-99.99,,,-99.99,,2013-05-04 09:02:00,
2013-05-04 02:11:00,56.0,16.0,-100.00,NNW,340,4.0,5.0,20,-99.99,,,-99.99,,2013-05-04 09:11:00,
2013-05-04 02:21:00,56.0,16.0,-100.00,NW,325,4.0,5.0,20,-99.99,,,-99.99,,2013-05-04 09:21:00,
2013-05-04 02:32:00,54.0,14.0,-100.00,NNW,344,3.0,5.0,20,-99.99,,,-99.99,,2013-05-04 09:32:00,
2013-05-04 02:42:00,55.0,15.0,-100.00,NNW,331,3.0,4.0,20,-99.99,,,-99.99,,2013-05-04 09:42:00,
2013-05-04 02:52:00,55.0,14.0,-100.00,NW,321,3.0,4.0,19,-99.99,,,-99.99,,2013-05-04 09:52:00,
2013-05-04 03:02:00,56.0,14.0,-100.00,NW,317,3.0,3.0,19,-99.99,,,-99.99,,2013-05-04 10:02:00,
2013-05-04 03:12:00,55.0,14.0,-100.00,NNW,333,3.0,3.0,19,-99.99,,,-99.99,,2013-05-04 10:12:00,
2013-05-04 03:22:00,56.0,13.0,-100.00,NNW,339,2.0,2.0,18,-99.99,,,-99.99,,2013-05-04 10:22:00,
2013-05-04 03:32:00,56.0,12.0,-100.00,NW,326,2.0,3.0,17,-99.99,,,-99.99,,2013-05-04 10:32:00,
2013-05-04 03:42:00,56.0,12.0,-100.00,NW,321,2.0,3.0,17,-99.99,,,-99.99,,2013-05-04 10:42:00,
2013-05-04 03:52:00,56.0,12.0,-100.00,NW,325,3.0,3.0,17,-99.99,,,-99.99,,2013-05-04 10:52:00,
2013-05-04 04:02:00,55.0,12.0,-100.00,NNW,331,3.0,4.0,18,-99.99,,,-99.99,,2013-05-04 11:02:00,
2013-05-04 04:11:00,55.0,12.0,-100.00,NW,313,2.0,3.0,18,-99.99,,,-99.99,,2013-05-04 11:11:00,
2013-05-04 04:21:00,55.0,12.0,-100.00,NNW,331,3.0,4.0,18,-99.99,,,-99.99,,2013-05-04 11:21:00,
2013-05-04 04:32:00,55.0,12.0,-100.00,NW,326,3.0,3.0,18,-99.99,,,-99.99,,2013-05-04 11:32:00,
2013-05-04 04:42:00,55.0,12.0,-100.00,NW,326,2.0,3.0,18,-99.99,,,-99.99,,2013-05-04 11:42:00,
2013-05-04 05:03:00,52.0,12.0,-100.00,NNW,332,3.0,4.0,20,-99.99,,,-99.99,,2013-05-04 12:03:00,
2013-05-04 05:12:00,52.0,12.0,-100.00,NW,323,3.0,4.0,20,-99.99,,,-99.99,,2013-05-04 12:12:00,
2013-05-04 05:23:00,53.0,12.0,-100.00,NNW,332,2.0,3.0,19,-99.99,,,-99.99,,2013-05-04 12:23:00,
2013-05-04 05:33:00,53.0,12.0,-100.00,North,352,2.0,3.0,19,-99.99,,,-99.99,,2013-05-04 12:33:00,
2013-05-04 05:41:00,53.0,12.0,-100.00,North,352,2.0,3.0,19,-99.99,,,-99.99,,2013-05-04 12:41:00,
2013-05-04 05:51:00,53.0,11.0,-100.00,WNW,283,1.0,2.0,18,-99.99,,,-99.99,,2013-05-04 12:51:00,
2013-05-04 06:01:00,53.0,11.0,-100.00,WSW,238,1.0,2.0,18,-99.99,,,-99.99,,2013-05-04 13:01:00,
2013-05-04 06:21:00,54.0,10.0,-100.00,NW,308,2.0,3.0,17,-99.99,,,-99.99,,2013-05-04 13:21:00,
2013-05-04 06:31:00,53.0,11.0,-100.00,NNW,328,3.0,3.0,18,-99.99,,,-99.99,,2013-05-04 13:31:00,
2013-05-04 06:41:00,52.0,9.0,-100.00,NNW,332,3.0,4.0,17,-99.99,,,-99.99,,2013-05-04 13:41:00,
2013-05-04 06:52:00,50.0,11.0,-100.00,NNW,332,3.0,4.0,20,-99.99,,,-99.99,,2013-05-04 13:52:00,
2013-05-04 07:02:00,49.0,12.0,-100.00,NW,322,3.0,4.0,22,-99.99,,,-99.99,,2013-05-04 14:02:00,
2013-05-04 07:11:00,50.0,12.0,-100.00,NNW,337,3.0,4.0,21,-99.99,,,-99.99,,2013-05-04 14:11:00,
2013-05-04 07:21:00,50.0,11.0,-100.00,NNW,337,3.0,4.0,20,-99.99,,,-99.99,,2013-05-04 14:21:00,
2013-05-04 07:32:00,52.0,12.0,-100.00,NNW,332,2.0,4.0,20,-99.99,,,-99.99,,2013-05-04 14:32:00,
2013-05-04 07:41:00,53.0,11.0,-100.00,NW,325,2.0,2.0,18,-99.99,,,-99.99,,2013-05-04 14:41:00,
2013-05-04 07:51:00,55.0,14.0,-100.00,NNW,330,1.0,2.0,19,-99.99,,,-99.99,,2013-05-04 14:51:00,
2013-05-04 08:01:00,57.0,14.0,-100.00,NNW,332,0.0,1.0,18,-99.99,,,-99.99,,2013-05-04 15:01:00,
2013-05-04 08:11:00,59.0,14.0,-100.00,NNW,343,0.0,1.0,17,-99.99,,,-99.99,,2013-05-04 15:11:00,
2013-05-04 08:21:00,61.0,13.0,-100.00,NW,312,0.0,1.0,15,-99.99,,,-99.99,,2013-05-04 15:21:00,
2013-05-04 08:33:00,63.0,18.0,-100.00,NE,51,0.0,1.0,17,-99.99,,,-99.99,,2013-05-04 15:33:00,
2013-05-04 08:42:00,66.0,12.0,-100.00,NNE,32,1.0,2.0,12,-99.99,,,-99.99,,2013-05-04 15:42:00,
2013-05-04 09:12:00,67.0,13.0,-100.00,North,352,1.0,3.0,12,-99.99,,,-99.99,,2013-05-04 16:12:00,
2013-05-04 09:22:00,66.0,10.0,-100.00,NW,306,3.0,7.0,11,-99.99,,,-99.99,,2013-05-04 16:22:00,
2013-05-04 09:33:00,66.0,8.0,-100.00,SW,230,5.0,8.0,10,-99.99,,,-99.99,,2013-05-04 16:33:00,
2013-05-04 09:42:00,67.0,9.0,-100.00,WSW,239,5.0,11.0,10,-99.99,,,-99.99,,2013-05-04 16:42:00,
2013-05-04 09:52:00,67.0,6.0,-100.00,WSW,242,6.0,11.0,9,-99.99,,,-99.99,,2013-05-04 16:52:00,
2013-05-04 10:02:00,67.0,6.0,-100.00,West,269,8.0,12.0,9,-99.99,,,-99.99,,2013-05-04 17:02:00,
2013-05-04 10:12:00,67.0,6.0,-100.00,West,266,7.0,13.0,9,-99.99,,,-99.99,,2013-05-04 17:12:00,
2013-05-04 10:22:00,67.0,6.0,-100.00,West,259,7.0,14.0,9,-99.99,,,-99.99,,2013-05-04 17:22:00,
2013-05-04 10:32:00,67.0,6.0,-100.00,WSW,241,9.0,14.0,9,-99.99,,,-99.99,,2013-05-04 17:32:00,
2013-05-04 10:42:00,68.0,7.0,-100.00,WSW,255,8.0,12.0,9,-99.99,,,-99.99,,2013-05-04 17:42:00,
2013-05-04 10:52:00,68.0,9.0,-100.00,West,259,8.0,13.0,10,-99.99,,,-99.99,,2013-05-04 17:52:00,
2013-05-04 11:01:00,68.0,9.0,-100.00,SW,236,7.0,13.0,10,-99.99,,,-99.99,,2013-05-04 18:01:00,
2013-05-04 11:12:00,68.0,9.0,-100.00,West,260,9.0,15.0,10,-99.99,,,-99.99,,2013-05-04 18:12:00,
2013-05-04 11:21:00,68.0,9.0,-100.00,WSW,252,8.0,16.0,10,-99.99,,,-99.99,,2013-05-04 18:21:00,
2013-05-04 11:32:00,68.0,12.0,-100.00,West,266,8.0,15.0,11,-99.99,,,-99.99,,2013-05-04 18:32:00,
2013-05-04 11:42:00,68.0,12.0,-100.00,West,261,9.0,18.0,11,-99.99,,,-99.99,,2013-05-04 18:42:00,
2013-05-04 11:52:00,69.0,12.0,-100.00,West,259,7.0,16.0,11,-99.99,,,-99.99,,2013-05-04 18:52:00,
2013-05-04 12:01:00,69.0,10.0,-100.00,West,265,9.0,16.0,10,-99.99,,,-99.99,,2013-05-04 19:01:00,
2013-05-04 12:11:00,69.0,10.0,-100.00,West,269,6.0,13.0,10,-99.99,,,-99.99,,2013-05-04 19:11:00,
2013-05-04 12:21:00,69.0,10.0,-100.00,West,263,9.0,17.0,10,-99.99,,,-99.99,,2013-05-04 19:21:00,
2013-05-04 12:31:00,68.0,9.0,-100.00,West,267,8.0,17.0,10,-99.99,,,-99.99,,2013-05-04 19:31:00,
2013-05-04 12:41:00,69.0,8.0,-100.00,WSW,257,10.0,18.0,9,-99.99,,,-99.99,,2013-05-04 19:41:00,
2013-05-04 12:52:00,69.0,8.0,-100.00,WSW,251,11.0,18.0,9,-99.99,,,-99.99,,2013-05-04 19:52:00,
2013-05-04 13:01:00,70.0,11.0,-100.00,WSW,238,8.0,17.0,10,-99.99,,,-99.99,,2013-05-04 20:01:00,
2013-05-04 13:11:00,70.0,11.0,-100.00,WSW,241,9.0,16.0,10,-99.99,,,-99.99,,2013-05-04 20:11:00,
2013-05-04 13:21:00,70.0,11.0,-100.00,SW,231,10.0,28.0,10,-99.99,,,-99.99,,2013-05-04 20:21:00,
2013-05-04 13:31:00,70.0,13.0,-100.00,West,264,9.0,17.0,11,-99.99,,,-99.99,,2013-05-04 20:31:00,
2013-05-04 13:41:00,70.0,15.0,-100.00,West,260,12.0,19.0,12,-99.99,,,-99.99,,2013-05-04 20:41:00,
2013-05-04 13:51:00,70.0,13.0,-100.00,WSW,254,9.0,20.0,11,-99.99,,,-99.99,,2013-05-04 20:51:00,
2013-05-04 14:01:00,71.0,16.0,-100.00,SW,232,8.0,15.0,12,-99.99,,,-99.99,,2013-05-04 21:01:00,
2013-05-04 14:11:00,71.0,19.0,-100.00,WSW,255,11.0,20.0,14,-99.99,,,-99.99,,2013-05-04 21:11:00,
2013-05-04 14:22:00,70.0,25.0,-100.00,SW,228,13.0,23.0,18,-99.99,,,-99.99,,2013-05-04 21:22:00,
2013-05-04 14:33:00,69.0,29.0,-100.00,WSW,251,14.0,24.0,22,-99.99,,,-99.99,,2013-05-04 21:33:00,
2013-05-04 14:43:00,69.0,29.0,-100.00,WSW,258,10.0,18.0,22,-99.99,,,-99.99,,2013-05-04 21:43:00,
2013-05-04 14:52:00,69.0,35.0,-100.00,WSW,252,12.0,21.0,29,-99.99,,,-99.99,,2013-05-04 21:52:00,
2013-05-04 15:02:00,69.0,35.0,-100.00,WSW,243,12.0,19.0,29,-99.99,,,-99.99,,2013-05-04 22:02:00,
2013-05-04 15:12:00,69.0,33.0,-100.00,WSW,239,11.0,18.0,26,-99.99,,,-99.99,,2013-05-04 22:12:00,
2013-05-04 15:22:00,69.0,30.0,-100.00,WSW,256,11.0,18.0,23,-99.99,,,-99.99,,2013-05-04 22:22:00,
2013-05-04 15:32:00,69.0,32.0,-100.00,WSW,252,11.0,19.0,25,-99.99,,,-99.99,,2013-05-04 22:32:00,
2013-05-04 15:42:00,68.0,33.0,-100.00,WSW,254,11.0,17.0,27,-99.99,,,-99.99,,2013-05-04 22:42:00,
2013-05-04 15:52:00,68.0,32.0,-100.00,WSW,256,12.0,20.0,26,-99.99,,,-99.99,,2013-05-04 22:52:00,
2013-05-04 16:02:00,68.0,34.0,-100.00,WSW,246,12.0,23.0,28,-99.99,,,-99.99,,2013-05-04 23:02:00,
2013-05-04 16:11:00,66.0,34.0,-100.00,WSW,248,12.0,20.0,30,-99.99,,,-99.99,,2013-05-04 23:11:00,
2013-05-04 16:21:00,66.0,35.0,-100.00,West,266,13.0,19.0,32,-99.99,,,-99.99,,2013-05-04 23:21:00,
2013-05-04 16:32:00,66.0,34.0,-100.00,WSW,255,12.0,19.0,31,-99.99,,,-99.99,,2013-05-04 23:32:00,
2013-05-04 16:42:00,65.0,33.0,-100.00,WSW,256,13.0,18.0,30,-99.99,,,-99.99,,2013-05-04 23:42:00,
2013-05-04 16:52:00,65.0,30.0,-100.00,WSW,256,12.0,18.0,27,-99.99,,,-99.99,,2013-05-04 23:52:00,
2013-05-04 17:01:00,65.0,32.0,-100.00,West,259,11.0,19.0,29,-99.99,,,-99.99,,2013-05-05 00:01:00,
2013-05-04 17:11:00,65.0,31.0,-100.00,WSW,246,12.0,20.0,28,-99.99,,,-99.99,,2013-05-05 00:11:00,
2013-05-04 17:21:00,65.0,30.0,-100.00,WSW,244,13.0,20.0,27,-99.99,,,-99.99,,2013-05-05 00:21:00,
2013-05-04 17:31:00,65.0,30.0,-100.00,WSW,256,12.0,19.0,27,-99.99,,,-99.99,,2013-05-05 00:31:00,
2013-05-04 17:42:00,65.0,30.0,-100.00,WSW,256,12.0,19.0,27,-99.99,,,-99.99,,2013-05-05 00:42:00,
2013-05-04 17:51:00,64.0,29.0,-100.00,WSW,255,12.0,18.0,27,-99.99,,,-99.99,,2013-05-05 00:51:00,
2013-05-04 18:01:00,63.0,29.0,-100.00,WSW,251,10.0,18.0,28,-99.99,,,-99.99,,2013-05-05 01:01:00,
2013-05-04 18:11:00,63.0,30.0,-100.00,West,259,9.0,15.0,29,-99.99,,,-99.99,,2013-05-05 01:11:00,
2013-05-04 18:21:00,63.0,29.0,-100.00,WSW,251,9.0,14.0,27,-99.99,,,-99.99,,2013-05-05 01:21:00,
2013-05-04 18:32:00,62.0,27.0,-100.00,WSW,255,8.0,13.0,26,-99.99,,,-99.99,,2013-05-05 01:32:00,
2013-05-04 18:42:00,62.0,23.0,-100.00,West,259,8.0,14.0,22,-99.99,,,-99.99,,2013-05-05 01:42:00,
2013-05-04 18:52:00,61.0,22.0,-100.00,WSW,258,9.0,15.0,22,-99.99,,,-99.99,,2013-05-05 01:52:00,
2013-05-04 19:02:00,61.0,25.0,-100.00,West,260,8.0,14.0,25,-99.99,,,-99.99,,2013-05-05 02:02:00,
2013-05-04 19:11:00,61.0,29.0,-100.00,West,281,7.0,12.0,30,-99.99,,,-99.99,,2013-05-05 02:11:00,
2013-05-04 19:21:00,60.0,29.0,-100.00,West,270,6.0,11.0,31,-99.99,,,-99.99,,2013-05-05 02:21:00,
2013-05-04 19:31:00,59.0,31.0,-100.00,WNW,283,5.0,10.0,35,-99.99,,,-99.99,,2013-05-05 02:31:00,
2013-05-04 19:42:00,58.0,31.0,-100.00,West,268,4.0,7.0,35,-99.99,,,-99.99,,2013-05-05 02:42:00,
2013-05-04 19:52:00,57.0,29.0,-100.00,WNW,289,4.0,6.0,34,-99.99,,,-99.99,,2013-05-05 02:52:00,
2013-05-04 20:01:00,56.0,28.0,-100.00,WNW,282,2.0,5.0,34,-99.99,,,-99.99,,2013-05-05 03:01:00,
2013-05-04 20:11:00,56.0,30.0,-100.00,NW,305,2.0,4.0,37,-99.99,,,-99.99,,2013-05-05 03:11:00,
2013-05-04 20:21:00,55.0,29.0,-100.00,North,356,3.0,5.0,37,-99.99,,,-99.99,,2013-05-05 03:21:00,
2013-05-04 20:32:00,55.0,27.0,-100.00,North,351,3.0,4.0,34,-99.99,,,-99.99,,2013-05-05 03:32:00,
2013-05-04 20:42:00,55.0,27.0,-100.00,NNW,348,3.0,5.0,34,-99.99,,,-99.99,,2013-05-05 03:42:00,
2013-05-04 20:52:00,54.0,26.0,-100.00,NNW,330,4.0,5.0,33,-99.99,,,-99.99,,2013-05-05 03:52:00,
2013-05-04 21:02:00,54.0,26.0,-100.00,North,355,3.0,4.0,33,-99.99,,,-99.99,,2013-05-05 04:02:00,
2013-05-04 21:12:00,54.0,25.0,-100.00,NNE,15,2.0,3.0,32,-99.99,,,-99.99,,2013-05-05 04:12:00,
2013-05-04 21:22:00,54.0,23.0,-100.00,NNE,14,3.0,5.0,30,-99.99,,,-99.99,,2013-05-05 04:22:00,
2013-05-04 21:32:00,54.0,22.0,-100.00,North,358,3.0,5.0,28,-99.99,,,-99.99,,2013-05-05 04:32:00,
2013-05-04 21:43:00,52.0,23.0,-100.00,West,266,1.0,3.0,32,-99.99,,,-99.99,,2013-05-05 04:43:00,
2013-05-04 21:52:00,53.0,21.0,-100.00,NW,321,1.0,3.0,28,-99.99,,,-99.99,,2013-05-05 04:52:00,
2013-05-04 22:02:00,53.0,19.0,-100.00,NNW,342,4.0,6.0,26,-99.99,,,-99.99,,2013-05-05 05:02:00,
2013-05-04 22:12:00,52.0,21.0,-100.00,NNW,331,4.0,7.0,29,-99.99,,,-99.99,,2013-05-05 05:12:00,
2013-05-04 22:21:00,52.0,22.0,-100.00,NNW,339,4.0,6.0,31,-99.99,,,-99.99,,2013-05-05 05:21:00,
2013-05-04 22:31:00,51.0,24.0,-100.00,North,3,3.0,5.0,34,-99.99,,,-99.99,,2013-05-05 05:31:00,
2013-05-04 22:42:00,51.0,28.0,-100.00,NE,39,3.0,4.0,41,-99.99,,,-99.99,,2013-05-05 05:42:00,
2013-05-04 22:51:00,51.0,24.0,-100.00,ENE,71,3.0,4.0,35,-99.99,,,-99.99,,2013-05-05 05:51:00,
2013-05-04 23:01:00,51.0,21.0,-100.00,ESE,119,2.0,4.0,31,-99.99,,,-99.99,,2013-05-05 06:01:00,
2013-05-04 23:11:00,52.0,20.0,-100.00,SSE,147,1.0,4.0,28,-99.99,,,-99.99,,2013-05-05 06:11:00,
2013-05-04 23:21:00,51.0,17.0,-100.00,SE,127,1.0,2.0,26,-99.99,,,-99.99,,2013-05-05 06:21:00,
2013-05-04 23:31:00,51.0,17.0,-100.00,SE,137,1.0,5.0,26,-99.99,,,-99.99,,2013-05-05 06:31:00,
2013-05-04 23:42:00,51.0,18.0,-100.00,ESE,104,2.0,3.0,27,-99.99,,,-99.99,,2013-05-05 06:42:00,
2013-05-04 23:51:00,51.0,18.0,-100.00,ESE,114,4.0,6.0,27,-99.99,,,-99.99,,2013-05-05 06:51:00,